Location: Lussas
(44.6119°N, 4.4726°E)
Time: 14:41:12
(UTC+00:00)

SL-4 R/B - Pass Details

Date: 26 November 2020
Orbit: 428 x 664 km, 51.6° (Epoch: 27 January)

Event Time Altitude Azimuth Distance (km) Brightness Sun altitude
Exits shadow 04:33:44 37° 30° (NNE) 805 3.0 -24.3°
Drops below altitude 10° 04:36:16 10° 54° (NE) 1,683 5.1 -23.9°
Sets 04:38:24 0° 60° (ENE) 2,529 6.2 -23.5°
